Notices

What's New in latest Release from April 7th, 2021:

- Updated Glossary, including Speed of Maximum Gust, and Total Hourly Precipitation

- Updated national and regional climate services offices contacts and prices information

- Addition of station inventory lists for 1981-2010, 1971-2000, and 1961-1990 Normals.

If you haven't already, please take our survey and provide feedback about our website: https://eccc.sondage-survey.ca/f/LanguageSelection.aspx?s=442ca660-fcf1-47c0-95a9-59707d6fd709

Hourly Data Report for March 18, 2021

NANAIMO A
BRITISH COLUMBIA
Current Station Operator: NAVCAN

49°03'16.000" N
123°52'12.000" W
28.00 m
1025365
YCD

Download Data

Hourly Data (March 2021)
Hourly Data Report for March 18, 2021
TIME
LST
Temp Definition
°C
Dew Point Definition
°C
Rel Hum Definition
%
Precip. Amount Definition
mm

Wind Dir Definition
10's deg

Wind Spd Definition
km/h
Visibility Definition
km
Stn Press Definition
kPa
Hmdx Definition


Wind Chill Definition


Weather Definition


00:00 1.6 0.8 94 LegendMM 32 2 LegendMM 100.82     LegendNANA
01:00 0.2 -0.7 93 LegendMM 18 3 LegendMM 100.80     LegendNANA
02:00 0.3 -0.2 96 LegendMM 22 4 LegendMM 100.71     LegendNANA
03:00 0.6 -0.1 95 LegendMM 6 3 LegendMM 100.61     LegendNANA
04:00 1.1 0.6 97 LegendMM 28 3 LegendMM 100.52     LegendNANA
05:00 1.1 0.7 97 LegendMM 19 2 LegendMM 100.44     LegendNANA
06:00 2.1 1.6 96 LegendMM 30 4 LegendMM 100.37     LegendNANA
07:00 2.3 1.9 97 LegendMM 2 5 LegendMM 100.36     LegendNANA
08:00 4.2 2.9 91 LegendMM 27 4 LegendMM 100.38     LegendNANA
09:00 5.7 3.4 85 LegendMM 3 3 LegendMM 100.41     LegendNANA
10:00 6.9 3.8 81 LegendMM 10 3 LegendMM 100.50     LegendNANA
11:00 8.4 4.9 78 LegendMM 11 4 LegendMM 100.48     LegendNANA
12:00 9.8 4.6 70 LegendMM 17 10 LegendMM 100.49     LegendNANA
13:00 9.1 5.5 78 LegendMM 9 10 LegendMM 100.52     LegendNANA
14:00 11.2 6.1 71 LegendMM 17 8 LegendMM 100.46     LegendNANA
15:00 11.2 6.2 71 LegendMM 11 7 LegendMM 100.45     LegendNANA
16:00 10.9 5.8 71 LegendMM 16 16 LegendMM 100.43     LegendNANA
17:00 9.2 3.5 67 LegendMM 23 17 LegendMM 100.52     LegendNANA
18:00 8.0 3.6 73 LegendMM 24 7 LegendMM 100.51     LegendNANA
19:00 6.9 4.3 84 LegendMM 1 2 LegendMM 100.60     LegendNANA
20:00 7.0 4.8 86 LegendMM 20 6 LegendMM 100.68     LegendNANA
21:00 7.3 3.6 77 LegendMM 14 20 LegendMM 100.68     LegendNANA
22:00 7.5 4.5 81 LegendMM 15 19 LegendMM 100.69     LegendNANA
23:00 7.3 4.5 82 LegendMM 14 19 LegendMM 100.67     LegendNANA

Notes on Data Quality.

Legend

  • E = Estimated
  • M = Missing
  • NA = Not Available*
  • [empty] = Indicates an unobserved value
Date modified: